Flag for Congo Dem.Rep. Weather past 2 weeks in Kinshasa, Congo Dem.Rep.

Now
81 °F

Passing clouds.


Feels Like: 83 °F
Forecast: 73 / 87 °F
Wind: 8 mph from West

Location: Brazzaville / Maya-Maya

Current Time: Sep 17, 2014 at 5:55:49 PM

Latest Report: Sep 17, 2014 at 5:00 PM


Visibility: 4 mi

Pressure: 29.89 "Hg

Humidity: 62%

Dew point: 66 °F

Location of KinshasaLocation

Historic Weather in Kinshasa — Graph

°F

Kinshasa temperature yesterday

Maximum temperature yesterday: 79 °F (at 3:00 PM)
Minimum temperature yesterday: 72 °F (at 4:00 AM)
Average temperature yesterday: 75 °F

Past Weeks' High & Low Weather Summary

 TemperatureHumidityPressure
High93 °F (Sep 13, 2:00 PM)94% (Sep 6, 5:00 AM)30.07 "Hg (Sep 6, 5:00 AM)
Low66 °F (Sep 5, 4:00 AM)41% (Sep 12, 1:00 AM)29.80 "Hg (Sep 13, 3:00 PM)
Average77 °F70%29.95 "Hg
* Reported Sep 2 4:00 PM — Sep 17 4:00 PM, Kinshasa, Weather by CustomWeather, © 2014

Note: Actual official high and low records may vary slightly from our data, if they occured in-between our weather recording intervals... More about our weather records

Advertising

Kinshasa weather history for previous 24 hours

 ConditionsComfort  
Time TempWeatherWind HumidityBarometerVisibility
4:00 PM
Sep 17
81 °FBroken clouds.9 mph62%29.89 "Hg4 mi
3:00 PM81 °FMostly cloudy.9 mph62%29.89 "Hg4 mi
2:00 PM81 °FMostly cloudy.9 mph66%29.92 "Hg4 mi
1:00 PM79 °FMostly cloudy.6 mph70%29.95 "Hg4 mi
12:00 PM77 °FMostly cloudy.6 mph74%29.98 "Hg4 mi
11:00 AM77 °FBroken clouds.6 mph74%30.01 "Hg4 mi
10:00 AM77 °FPartly sunny.7 mph79%30.01 "Hg4 mi
9:00 AM73 °FFog.5 mph83%30.04 "Hg2 mi
8:00 AM72 °FFog.2 mph83%30.01 "Hg2 mi
7:00 AM70 °FFog.5 mph88%30.01 "Hg1 mi
6:01 AM68 °FFog.No wind94%29.98 "Hg1 mi
5:00 AM68 °FClear.No wind94%29.95 "Hg5 mi
4:00 AM68 °FClear.6 mph94%29.95 "Hg5 mi
3:00 AM70 °FClear.3 mph88%29.92 "Hg5 mi
2:00 AM73 °FClear.3 mph74%29.92 "Hg4 mi
1:00 AM72 °FClear.5 mph83%29.92 "Hg4 mi
12:00 AM72 °FClear.2 mph88%29.92 "Hg4 mi
11:00 PM
Sep 16
73 °FFog.No wind83%29.95 "Hg2 mi
10:00 PM73 °FFog.No wind83%29.95 "Hg2 mi
9:00 PM73 °FFog.1 mph83%29.92 "Hg2 mi
8:00 PM75 °FClear.No wind78%29.92 "Hg4 mi
6:00 PM77 °FClear.1 mph74%29.89 "Hg5 mi
5:00 PM79 °FClear.5 mph70%29.86 "Hg5 mi
Weather by CustomWeather, © 2014

See weather overviewHow to use our weather pages